DW6643 Flixton UK current weather conditions

sailwx.info

Wind from 042 at 2 knots gusting 4

Air temperature 21.1° C
Dewpoint 18.5° C

Last reported at 2020-Aug-11 09:05 UTC.
Time now 2020-Aug-11 10:02 UTC

Location: N 53°24' W 002°24'.
View on Google Maps.

See reports from other nearby stations

  
Tides and Currents Weather Stations Pressure Air Temp Water Temp Dewpoint Dewpoint Depression Visibility Wind Speed Wind Dir Waves Ship Positions
date/time (UTC)wind fromknots sea level pressurealtimeterstation pressurevisibilityair tempwater tempwave heightnotes
2020-Aug-11 09:05 042 2 gusting 4 21.1
2020-Aug-11 09:00 051 2 gusting 4 20.6
2020-Aug-11 08:55 049 2 gusting 4 20.6
2020-Aug-11 08:50 052 2 gusting 5 20.6
2020-Aug-11 08:45 051 2 gusting 5 20.6
2020-Aug-11 08:40 051 2 gusting 6 20.0
2020-Aug-11 08:35 048 1 gusting 6 20.0
2020-Aug-11 08:30 041 1 gusting 6 20.0
2020-Aug-11 08:25 028 1 gusting 4 20.0
2020-Aug-11 08:20 037 2 gusting 4 19.4
2020-Aug-11 08:15 054 2 gusting 4 19.4
2020-Aug-11 08:10 058 2 gusting 4 19.4
2020-Aug-11 08:05 058 2 gusting 4 19.4
2020-Aug-11 08:00 056 2 gusting 4 19.4
2020-Aug-11 05:25 060 5 gusting 11 18.9
2020-Aug-11 05:20 063 5 gusting 11 18.9
2020-Aug-11 05:15 062 5 gusting 8 18.9
2020-Aug-11 05:10 062 5 gusting 9 18.9
2020-Aug-11 05:05 064 6 gusting 9 18.9
2020-Aug-11 05:00 064 6 gusting 11 18.9
2020-Aug-11 04:55 061 5 gusting 11 18.3
2020-Aug-11 04:50 061 4 gusting 10 18.3
2020-Aug-11 04:45 060 4 gusting 10 18.3
2020-Aug-11 04:40 056 4 gusting 10 18.3
2020-Aug-11 04:35 058 5 gusting 8 18.3
2020-Aug-11 04:30 060 5 gusting 8 18.3
2020-Aug-11 04:25 061 5 gusting 9 18.3
2020-Aug-11 04:20 059 5 gusting 9 18.3
2020-Aug-11 04:15 059 5 gusting 9 18.3
2020-Aug-11 04:10 057 5 gusting 12 18.3
2020-Aug-11 04:00 054 5 gusting 9 18.3
2020-Aug-11 03:55 059 5 gusting 10 18.3
2020-Aug-11 03:50 059 5 gusting 11 18.3
2020-Aug-11 03:45 053 5 gusting 11 18.3
2020-Aug-11 03:40 052 6 gusting 10 18.3
2020-Aug-11 03:35 057 6 gusting 10 18.3
2020-Aug-11 03:30 060 5 gusting 10 18.3
2020-Aug-11 03:25 055 5 gusting 10 18.3
2020-Aug-11 03:20 053 5 gusting 11 18.3
2020-Aug-11 03:15 053 6 gusting 11 18.3
2020-Aug-11 03:10 056 5 gusting 11 18.3
2020-Aug-11 03:05 058 4 gusting 10 18.3
2020-Aug-11 03:00 050 3 gusting 10 18.3
2020-Aug-11 02:55 037 2 gusting 7 18.3
2020-Aug-11 02:50 033 3 gusting 7 18.3
2020-Aug-11 02:45 031 3 gusting 8 18.3
2020-Aug-11 02:40 030 3 gusting 9 18.3
2020-Aug-11 02:35 035 3 gusting 10 18.3
2020-Aug-11 02:30 033 4 gusting 10 18.3
2020-Aug-11 02:25 021 4 gusting 10 18.3
2020-Aug-11 02:20 016 4 gusting 10 18.3
2020-Aug-11 02:15 007 4 gusting 9 18.3
2020-Aug-11 02:10 353 3 gusting 8 18.3
2020-Aug-11 02:05 347 3 gusting 9 18.3
2020-Aug-11 02:00 354 3 gusting 9 18.3
2020-Aug-11 01:55 004 3 gusting 8 17.8
2020-Aug-11 01:50 007 3 gusting 8 17.8
2020-Aug-11 01:45 003 3 gusting 8 18.3
2020-Aug-11 01:40 355 3 gusting 8 18.3
2020-Aug-11 01:35 341 3 gusting 8 18.3
2020-Aug-11 01:25 319 4 gusting 7 18.3
2020-Aug-11 01:20 313 3 gusting 10 18.3
2020-Aug-11 01:10 304 4 gusting 7 18.3
2020-Aug-11 01:05 298 4 gusting 7 18.3
2020-Aug-11 00:55 296 4 gusting 9 18.3
2020-Aug-11 00:50 291 4 gusting 9 18.3
2020-Aug-11 00:45 288 4 gusting 8 18.3
2020-Aug-11 00:35 281 4 gusting 7 18.9
2020-Aug-11 00:25 277 3 gusting 7 18.9
2020-Aug-11 00:20 273 3 gusting 7 19.4
2020-Aug-11 00:10 268 3 gusting 8 20.6
2020-Aug-11 00:05 250 2 gusting 8 21.1
2020-Aug-11 00:00 256 2 gusting 6 21.1
2020-Aug-10 23:55 282 1 gusting 6 21.7
2020-Aug-10 23:50 087 2 gusting 4 21.7
2020-Aug-10 23:45 102 3 gusting 8 21.7
2020-Aug-10 23:40 080 3 gusting 8 21.1
2020-Aug-10 23:35 067 2 gusting 7 21.1
2020-Aug-10 23:30 059 2 gusting 6 21.1
2020-Aug-10 23:25 045 2 gusting 6 21.1
2020-Aug-10 23:20 041 3 gusting 6 21.1
2020-Aug-10 23:15 045 3 gusting 7 21.1
2020-Aug-10 23:10 046 3 gusting 7 21.1
2020-Aug-10 23:05 053 3 gusting 6 21.1
2020-Aug-10 23:00 060 4 gusting 6 21.1
2020-Aug-10 22:55 061 5 gusting 8 21.1
2020-Aug-10 22:50 062 5 gusting 9 21.1
2020-Aug-10 22:40 064 5 gusting 10 21.7
2020-Aug-10 22:35 055 5 gusting 12 21.7
2020-Aug-10 22:25 053 4 gusting 11 21.7
2020-Aug-10 22:20 056 3 gusting 9 21.7
2020-Aug-10 22:15 053 3 gusting 9 21.7
2020-Aug-10 22:10 051 3 gusting 7 21.7
2020-Aug-10 22:05 055 3 gusting 7 22.2
2020-Aug-10 21:55 045 4 gusting 8 22.2
2020-Aug-10 21:50 053 5 gusting 8 22.2
2020-Aug-10 21:45 055 5 gusting 9 22.2
2020-Aug-10 21:40 052 4 gusting 10 22.2
2020-Aug-10 21:35 049 3 gusting 10 22.2
2020-Aug-10 21:30 048 4 gusting 7 22.2
2020-Aug-10 21:25 046 4 gusting 10 22.2
2020-Aug-10 21:20 050 4 gusting 10 22.8
2020-Aug-10 21:15 049 4 gusting 10 22.8
2020-Aug-10 21:10 047 4 gusting 10 22.8
2020-Aug-10 21:05 046 3 gusting 9 22.8
2020-Aug-10 21:00 044 4 gusting 9 22.8
2020-Aug-10 20:55 035 5 gusting 9 22.8
2020-Aug-10 20:50 035 5 gusting 10 22.8
2020-Aug-10 20:40 038 4 gusting 11 22.8
2020-Aug-10 20:35 038 4 gusting 11 22.8
2020-Aug-10 20:30 040 3 gusting 10 22.8
2020-Aug-10 20:25 037 2 gusting 10 23.3
2020-Aug-10 20:20 031 2 gusting 8 23.3
2020-Aug-10 20:10 345 2 gusting 6 23.3
2020-Aug-10 20:05 008 3 gusting 9 23.3
2020-Aug-10 20:00 023 2 gusting 9 23.3
2020-Aug-10 19:55 028 2 gusting 6 23.9
2020-Aug-10 19:50 011 2 gusting 6 23.9
2020-Aug-10 19:40 014 2 gusting 6 24.4
2020-Aug-10 19:35 005 2 gusting 6 24.4
2020-Aug-10 19:30 005 2 gusting 8 24.4
2020-Aug-10 19:25 015 2 gusting 8 24.4
2020-Aug-10 19:20 031 2 gusting 7 25.0
2020-Aug-10 19:15 051 2 gusting 7 25.0
2020-Aug-10 19:10 055 3 gusting 6 25.0
2020-Aug-10 19:05 050 4 gusting 9 25.0
2020-Aug-10 18:55 056 4 gusting 10 25.0
2020-Aug-10 18:50 055 4 gusting 10 25.0
2020-Aug-10 18:45 052 2 gusting 8 25.0
2020-Aug-10 18:40 037 1 gusting 8 24.4
2020-Aug-10 18:35 341 1 gusting 5 24.4
2020-Aug-10 18:30 297 1 gusting 3 24.4
2020-Aug-10 18:20 307 1 gusting 3 24.4
2020-Aug-10 18:15 309 2 gusting 3 24.4
2020-Aug-10 18:10 263 3 gusting 6 25.0
2020-Aug-10 18:05 255 3 gusting 6 25.0
2020-Aug-10 17:55 286 2 gusting 6 25.6
2020-Aug-10 17:50 300 1 gusting 6 26.1
2020-Aug-10 17:40 353 1 gusting 3 26.1
2020-Aug-10 17:35 337 2 gusting 6 26.1
2020-Aug-10 17:25 328 2 gusting 7 26.7
2020-Aug-10 17:20 333 1 gusting 4 26.7
2020-Aug-10 17:15 351 1 gusting 4 26.7
2020-Aug-10 17:10 004 2 gusting 4 26.7
2020-Aug-10 17:05 013 2 gusting 4 26.7
2020-Aug-10 17:00 018 2 gusting 6 27.2
2020-Aug-10 16:55 018 2 gusting 6 27.2
2020-Aug-10 16:50 014 2 gusting 4 27.2
2020-Aug-10 16:45 342 2 gusting 5 27.2
2020-Aug-10 16:40 303 2 gusting 6 27.2
2020-Aug-10 16:35 289 2 gusting 6 27.2
2020-Aug-10 16:30 285 1 gusting 6 26.7
2020-Aug-10 16:25 286 1 gusting 5 26.7
2020-Aug-10 16:20 289 2 gusting 5 26.7
2020-Aug-10 16:15 304 2 gusting 5 27.2
2020-Aug-10 16:10 318 1 gusting 5 27.2
2020-Aug-10 16:05 330 2 gusting 6 27.2
2020-Aug-10 16:00 327 2 gusting 6 27.2
2020-Aug-10 15:55 329 2 gusting 5 27.2
2020-Aug-10 15:50 339 3 gusting 6 27.2
2020-Aug-10 15:45 336 3 gusting 6 27.2
2020-Aug-10 15:40 331 3 gusting 6 26.7
2020-Aug-10 15:35 337 2 gusting 6 26.7
2020-Aug-10 15:30 357 2 gusting 6 26.7
2020-Aug-10 15:25 006 2 gusting 6 26.7
2020-Aug-10 15:20 358 3 gusting 6 26.7
2020-Aug-10 15:15 358 3 gusting 8 26.7
2020-Aug-10 15:10 006 3 gusting 8 26.7
2020-Aug-10 15:05 033 3 gusting 7 26.7
2020-Aug-10 15:00 038 4 gusting 6 26.7
2020-Aug-10 14:55 039 5 gusting 8 26.7
2020-Aug-10 14:50 054 6 gusting 12 26.7
2020-Aug-10 14:45 057 5 gusting 12 27.2
2020-Aug-10 14:40 061 5 gusting 9 27.2
2020-Aug-10 14:35 068 4 gusting 9 26.7
2020-Aug-10 14:30 059 4 gusting 9 26.7
2020-Aug-10 14:25 053 4 gusting 9 26.7
2020-Aug-10 14:20 051 5 gusting 8 26.7
2020-Aug-10 14:15 048 5 gusting 8 26.7
2020-Aug-10 14:10 053 5 gusting 9 26.7
2020-Aug-10 14:05 066 6 gusting 11 26.7
2020-Aug-10 14:00 066 6 gusting 12 26.1
2020-Aug-10 13:55 062 6 gusting 12 26.1
2020-Aug-10 13:50 074 6 gusting 13 26.7
2020-Aug-10 13:45 078 5 gusting 13 26.7
2020-Aug-10 13:40 063 5 gusting 11 26.7
2020-Aug-10 13:35 041 4 gusting 11 26.7
2020-Aug-10 13:30 029 3 gusting 11 26.1
2020-Aug-10 13:25 036 3 gusting 7 25.6
2020-Aug-10 13:20 037 4 gusting 7 25.6
2020-Aug-10 13:15 049 4 gusting 9 25.6
2020-Aug-10 13:10 054 4 gusting 9 25.0
2020-Aug-10 13:05 055 3 gusting 9 25.0
2020-Aug-10 13:00 050 3 gusting 9 24.4
2020-Aug-10 12:55 045 3 gusting 7 24.4
2020-Aug-10 12:50 050 3 gusting 8 24.4
2020-Aug-10 12:45 058 3 gusting 8 24.4
2020-Aug-10 12:40 056 3 gusting 7 24.4
2020-Aug-10 12:35 047 2 gusting 7 25.0
2020-Aug-10 12:30 041 2 gusting 7 25.0
2020-Aug-10 12:25 042 3 gusting 5 25.0
2020-Aug-10 12:20 064 3 gusting 8 25.0
2020-Aug-10 12:15 060 3 gusting 8 25.0
2020-Aug-10 12:10 034 3 gusting 7 25.0
2020-Aug-10 12:05 054 4 gusting 8 25.6
2020-Aug-10 11:55 037 4 gusting 7 25.6
2020-Aug-10 11:50 057 4 gusting 10 25.6
2020-Aug-10 11:45 073 4 gusting 13 25.6
2020-Aug-10 11:40 074 4 gusting 13 25.6
2020-Aug-10 11:35 069 4 gusting 8 25.6
2020-Aug-10 11:30 066 4 gusting 8 25.0
2020-Aug-10 11:25 065 4 gusting 9 25.0
2020-Aug-10 11:20 070 4 gusting 9 25.0
2020-Aug-10 11:10 050 3 gusting 8 25.0
2020-Aug-10 11:05 054 3 gusting 7 24.4
2020-Aug-10 11:00 064 3 gusting 6 24.4
2020-Aug-10 10:55 093 3 gusting 5 24.4
2020-Aug-10 10:50 059 2 gusting 6 24.4
2020-Aug-10 10:45 039 2 gusting 7 24.4
2020-Aug-10 10:40 027 1 gusting 7 23.9
2020-Aug-10 10:35 356 2 gusting 5 23.9
2020-Aug-10 10:30 022 3 gusting 5 23.3
2020-Aug-10 10:25 066 3 gusting 6 23.3
2020-Aug-10 10:20 059 2 gusting 6 23.3
2020-Aug-10 10:15 022 2 gusting 6 23.3
2020-Aug-10 10:10 354 2 gusting 6 23.3
2020-Aug-10 10:05 356 2 gusting 6 23.3
2020-Aug-10 10:00 006 2 gusting 6 23.3
2020-Aug-10 09:55 349 2 gusting 6 22.8
2020-Aug-10 09:50 339 2 gusting 6 22.8
2020-Aug-10 09:45 324 2 gusting 6 22.2
2020-Aug-10 09:40 359 2 gusting 6 22.2
2020-Aug-10 09:35 032 2 gusting 6 21.7
2020-Aug-10 09:30 356 2 gusting 6 21.7
2020-Aug-10 09:25 359 2 gusting 6 21.7
2020-Aug-10 09:20 008 2 gusting 5 21.7
2020-Aug-10 09:15 340 3 gusting 6 21.7
2020-Aug-10 09:10 347 3 gusting 6 21.7
2020-Aug-10 09:05 346 2 gusting 6 21.7
2020-Aug-10 09:00 354 2 gusting 6 21.1
2020-Aug-10 08:55 027 2 gusting 6 20.6
2020-Aug-10 08:50 035 2 gusting 6 20.6
2020-Aug-10 08:40 036 2 gusting 4 20.0
2020-Aug-10 08:35 043 3 gusting 4 20.0
2020-Aug-10 08:30 061 3 gusting 6 19.4
2020-Aug-10 08:25 055 3 gusting 7 19.4
2020-Aug-10 08:20 034 3 gusting 7 20.0
2020-Aug-10 08:15 045 3 gusting 7 20.0
2020-Aug-10 08:10 051 3 gusting 7 19.4
2020-Aug-10 08:05 036 3 gusting 7 19.4
2020-Aug-10 08:00 035 3 gusting 6 19.4
2020-Aug-10 07:55 047 3 gusting 6 19.4
2020-Aug-10 07:50 052 3 gusting 6 19.4
2020-Aug-10 07:45 045 3 gusting 6 19.4
2020-Aug-10 07:40 043 3 gusting 8 19.4
2020-Aug-10 07:35 040 3 gusting 8 19.4
2020-Aug-10 07:30 027 3 gusting 7 19.4
2020-Aug-10 07:20 052 3 gusting 6 19.4
2020-Aug-10 07:15 055 3 gusting 7 19.4
2020-Aug-10 07:10 050 3 gusting 7 19.4
2020-Aug-10 07:05 048 3 gusting 7 18.9
2020-Aug-10 07:00 038 3 gusting 8 18.9
2020-Aug-10 06:55 038 2 gusting 8 18.9
2020-Aug-10 06:50 042 1 gusting 6 18.3
2020-Aug-10 06:45 025 1 gusting 6 18.3
2020-Aug-10 06:40 012 1 gusting 5 18.3
2020-Aug-10 06:35 356 1 gusting 4 17.8
2020-Aug-10 06:30 356 1 gusting 4 17.8
2020-Aug-10 06:25 353 1 gusting 4 17.2
2020-Aug-10 06:20 352 1 gusting 3 17.2
2020-Aug-10 06:15 353 1 gusting 4 17.2
2020-Aug-10 06:10 011 1 gusting 4 16.7
2020-Aug-10 06:05 027 1 gusting 5 16.7
2020-Aug-10 06:00 034 1 gusting 5 16.7
2020-Aug-10 05:55 040 0 gusting 3 16.7
2020-Aug-10 05:50 026 0 gusting 3 16.7
2020-Aug-10 05:45 020 1 gusting 3 16.7
2020-Aug-10 05:40 044 2 gusting 5 16.7
2020-Aug-10 05:35 051 2 gusting 7 16.7
2020-Aug-10 05:30 047 2 gusting 7 16.1
2020-Aug-10 05:25 045 2 gusting 5 16.1
2020-Aug-10 05:15 034 2 gusting 6 16.1
2020-Aug-10 05:10 019 1 gusting 5 16.1
2020-Aug-10 05:05 014 1 gusting 5 16.1
2020-Aug-10 04:55 356 1 gusting 5 16.1
2020-Aug-10 04:50 017 2 gusting 5 16.7
2020-Aug-10 04:45 026 2 gusting 5 16.7
2020-Aug-10 04:40 027 2 gusting 6 16.1
2020-Aug-10 04:35 024 1 gusting 6 16.1
2020-Aug-10 04:30 024 2 gusting 6 16.1
2020-Aug-10 04:25 041 3 gusting 6 16.1
2020-Aug-10 04:20 047 3 gusting 6 16.1
2020-Aug-10 04:15 047 3 gusting 8 16.1
2020-Aug-10 04:10 047 2 gusting 8 16.1
2020-Aug-10 04:05 047 2 gusting 6 16.1
2020-Aug-10 04:00 040 2 gusting 6 16.1
2020-Aug-10 03:55 045 2 gusting 7 16.1
2020-Aug-10 03:50 049 2 gusting 7 16.1
2020-Aug-10 03:45 045 2 gusting 6 16.1
2020-Aug-10 03:40 038 2 gusting 4 16.1
2020-Aug-10 03:35 034 2 gusting 6 16.1
2020-Aug-10 03:25 044 2 gusting 6 16.1
2020-Aug-10 03:20 040 2 gusting 6 16.1
2020-Aug-10 03:15 030 3 gusting 10 16.1
2020-Aug-10 03:10 037 3 gusting 10 16.7
2020-Aug-10 03:05 043 3 gusting 8 16.7
2020-Aug-10 03:00 040 3 gusting 9 16.7
2020-Aug-10 02:55 036 3 gusting 10 16.7
2020-Aug-10 02:50 034 2 gusting 10 16.7
2020-Aug-10 02:40 028 3 gusting 8 16.7
2020-Aug-10 02:35 030 3 gusting 8 16.7
2020-Aug-10 02:30 026 2 gusting 7 16.7
2020-Aug-10 02:25 026 2 gusting 7 16.7
2020-Aug-10 02:20 027 2 gusting 7 16.1
2020-Aug-10 02:15 029 2 gusting 7 16.1
2020-Aug-10 02:10 040 3 gusting 7 16.7
2020-Aug-10 02:05 043 3 gusting 7 16.7
2020-Aug-10 02:00 045 3 gusting 8 16.7
2020-Aug-10 01:55 046 3 gusting 8 16.7
2020-Aug-10 01:50 041 3 gusting 8 16.7
2020-Aug-10 01:45 030 2 gusting 7 16.7
2020-Aug-10 01:40 031 2 gusting 6 16.7
2020-Aug-10 01:35 039 2 gusting 5 16.7
2020-Aug-10 01:30 028 2 gusting 6 16.7
2020-Aug-10 01:25 029 2 gusting 7 16.7
2020-Aug-10 01:20 030 2 gusting 7 16.7
2020-Aug-10 01:15 019 1 gusting 7 16.7
2020-Aug-10 01:10 021 1 gusting 5 16.7
2020-Aug-10 01:05 027 2 gusting 7 16.7
2020-Aug-10 01:00 030 3 gusting 7 16.7
2020-Aug-10 00:55 033 3 gusting 8 16.7
2020-Aug-10 00:50 028 2 gusting 8 16.7
2020-Aug-10 00:40 034 2 gusting 5 17.2
2020-Aug-10 00:35 030 2 gusting 6 17.2
2020-Aug-10 00:30 027 2 gusting 6 17.2
2020-Aug-10 00:25 036 2 gusting 5 17.2
2020-Aug-10 00:20 033 2 gusting 6 17.2
2020-Aug-10 00:15 031 2 gusting 6 17.2
2020-Aug-10 00:10 029 2 gusting 6 17.2
2020-Aug-10 00:05 019 2 gusting 6 17.2
2020-Aug-10 00:00 016 2 gusting 6 17.2
2020-Aug-09 23:55 030 2 gusting 6 17.2
2020-Aug-09 23:50 034 2 gusting 7 17.2
2020-Aug-09 23:45 039 2 gusting 7 17.2
2020-Aug-09 23:40 047 4 gusting 5 17.8
2020-Aug-09 23:35 051 4 gusting 8 17.8
2020-Aug-09 23:30 048 4 gusting 9 17.8
2020-Aug-09 23:25 047 4 gusting 9 17.8
2020-Aug-09 23:20 052 4 gusting 8 17.8
2020-Aug-09 23:10 048 4 gusting 11 17.8
2020-Aug-09 23:05 051 4 gusting 11 17.8
2020-Aug-09 22:55 050 4 gusting 11 17.8
2020-Aug-09 22:50 048 4 gusting 11 17.8
2020-Aug-09 22:45 050 4 gusting 7 17.8
2020-Aug-09 22:40 055 4 gusting 9 17.8
2020-Aug-09 22:35 056 4 gusting 9 17.8
2020-Aug-09 22:30 050 5 gusting 9 18.3
2020-Aug-09 22:25 048 6 gusting 9 18.3
2020-Aug-09 22:20 048 5 gusting 9 18.3
2020-Aug-09 22:15 047 5 gusting 10 18.3
2020-Aug-09 22:10 047 5 gusting 10 18.3
2020-Aug-09 22:05 050 4 gusting 9 18.3
2020-Aug-09 22:00 054 3 gusting 9 18.3
2020-Aug-09 21:55 054 3 gusting 8 18.9
2020-Aug-09 21:50 052 3 gusting 6 18.9
2020-Aug-09 21:45 053 2 gusting 6 18.9
2020-Aug-09 21:40 061 2 gusting 6 18.9
2020-Aug-09 21:35 059 2 gusting 5 18.9
2020-Aug-09 21:30 054 2 gusting 6 18.9
2020-Aug-09 21:25 054 2 gusting 6 19.4
2020-Aug-09 21:20 055 2 gusting 6 19.4
2020-Aug-09 21:15 061 2 gusting 6 19.4
2020-Aug-09 21:10 063 2 gusting 6 19.4
2020-Aug-09 21:05 066 3 gusting 6 19.4
2020-Aug-09 20:55 059 5 gusting 9 19.4
2020-Aug-09 20:50 060 4 gusting 10 19.4
2020-Aug-09 20:45 067 4 gusting 10 20.0
2020-Aug-09 20:40 067 5 gusting 9 20.0
2020-Aug-09 20:35 065 6 gusting 10 20.0
2020-Aug-09 20:25 075 5 gusting 11 20.0
2020-Aug-09 20:20 074 5 gusting 10 20.0
2020-Aug-09 20:15 069 4 gusting 9 20.6
2020-Aug-09 20:10 065 4 gusting 9 20.6
2020-Aug-09 20:05 067 5 gusting 8 20.6
2020-Aug-09 20:00 070 6 gusting 11 20.6
2020-Aug-09 19:55 071 6 gusting 12 20.6
2020-Aug-09 19:50 073 4 gusting 12 20.6
2020-Aug-09 19:45 067 3 gusting 10 20.6
2020-Aug-09 19:40 069 3 gusting 9 21.1
2020-Aug-09 19:35 077 5 gusting 7 21.1
2020-Aug-09 19:30 083 5 gusting 9 21.1
2020-Aug-09 19:25 090 5 gusting 11 21.1
2020-Aug-09 19:20 087 4 gusting 11 21.1
2020-Aug-09 19:15 083 5 gusting 8 21.7
2020-Aug-09 19:10 089 5 gusting 8 21.7
2020-Aug-09 19:05 092 6 gusting 8 21.7
2020-Aug-09 19:00 090 6 gusting 10 21.7
2020-Aug-09 18:55 084 5 gusting 10 21.7
2020-Aug-09 18:50 082 5 gusting 9 21.7
2020-Aug-09 18:45 087 5 gusting 9 21.7
2020-Aug-09 18:40 085 5 gusting 10 21.7
2020-Aug-09 18:35 078 5 gusting 10 21.7
2020-Aug-09 18:30 078 5 gusting 9 22.2
2020-Aug-09 18:25 072 6 gusting 10 22.2
2020-Aug-09 18:20 068 6 gusting 10 22.2
2020-Aug-09 18:10 077 6 gusting 10 22.2
2020-Aug-09 17:45 089 6 gusting 13 22.8
2020-Aug-09 17:40 091 5 gusting 13 22.8
2020-Aug-09 17:35 091 5 gusting 9 22.8
2020-Aug-09 17:30 082 5 gusting 9 22.8
2020-Aug-09 17:25 086 5 gusting 9 22.8
2020-Aug-09 17:20 086 6 gusting 9 22.8
2020-Aug-09 17:15 084 6 gusting 12 22.8
2020-Aug-09 17:10 095 6 gusting 12 22.8
2020-Aug-09 17:05 100 6 gusting 10 22.8
2020-Aug-09 16:55 102 6 gusting 10 22.8
2020-Aug-09 16:50 106 6 gusting 9 22.8
2020-Aug-09 16:45 096 6 gusting 10 23.3
2020-Aug-09 16:40 086 6 gusting 10 23.3
2020-Aug-09 16:35 076 5 gusting 11 23.3
2020-Aug-09 16:30 079 5 gusting 11 23.3
2020-Aug-09 16:25 088 6 gusting 9 23.3
2020-Aug-09 16:20 087 6 gusting 11 23.3
2020-Aug-09 16:15 087 6 gusting 11 23.3
2020-Aug-09 16:10 077 6 gusting 11 23.3
2020-Aug-09 16:05 072 6 gusting 12 23.3
2020-Aug-09 16:00 084 6 gusting 12 23.3
2020-Aug-09 15:55 085 6 gusting 12 23.3
2020-Aug-09 15:50 071 6 gusting 12 23.3
2020-Aug-09 15:45 078 6 gusting 12 23.3
2020-Aug-09 15:40 086 6 gusting 12 23.3
2020-Aug-09 15:35 084 5 gusting 13 23.3
2020-Aug-09 15:30 073 4 gusting 13 23.3
2020-Aug-09 15:25 074 4 gusting 8 23.9
2020-Aug-09 15:20 086 3 gusting 8 23.9
2020-Aug-09 15:15 087 4 gusting 7 23.3
2020-Aug-09 15:10 082 4 gusting 9 23.3
2020-Aug-09 15:05 078 4 gusting 9 23.3
2020-Aug-09 15:00 085 5 gusting 9 23.9
2020-Aug-09 14:55 099 5 gusting 8 23.9
2020-Aug-09 14:50 108 5 gusting 8 23.9
2020-Aug-09 14:45 092 5 gusting 8 23.3
2020-Aug-09 14:40 081 6 gusting 10 23.3
2020-Aug-09 14:35 090 6 gusting 10 23.3
2020-Aug-09 14:30 090 5 gusting 11 23.3
2020-Aug-09 14:25 089 5 gusting 11 23.9
2020-Aug-09 14:20 079 5 gusting 9 23.9
2020-Aug-09 14:10 083 6 gusting 11 23.3
2020-Aug-09 14:05 081 6 gusting 11 23.3
2020-Aug-09 14:00 089 6 gusting 13 23.3
2020-Aug-09 13:55 091 6 gusting 13 23.3
2020-Aug-09 13:50 100 6 gusting 10 23.3
2020-Aug-09 13:45 106 6 gusting 11 23.3
2020-Aug-09 13:40 097 6 gusting 14 23.3
2020-Aug-09 13:35 090 6 gusting 14 23.3
2020-Aug-09 13:30 096 6 gusting 12 23.3
2020-Aug-09 13:25 079 5 gusting 14 23.3
2020-Aug-09 13:20 053 5 gusting 14 22.8
2020-Aug-09 13:15 065 5 gusting 9 22.8
2020-Aug-09 13:10 075 6 gusting 10 22.8
2020-Aug-09 13:05 090 6 gusting 11 22.2
2020-Aug-09 13:00 087 5 gusting 11 22.2
2020-Aug-09 12:55 062 5 gusting 10 22.2
2020-Aug-09 12:50 051 6 gusting 10 22.2
2020-Aug-09 12:45 051 5 gusting 13 22.2
2020-Aug-09 12:40 050 5 gusting 13 22.2
2020-Aug-09 12:30 051 4 gusting 11 21.7
2020-Aug-09 12:25 047 5 gusting 9 21.7
2020-Aug-09 12:20 050 5 gusting 12 21.7
2020-Aug-09 12:15 062 5 gusting 12 21.7
2020-Aug-09 12:10 053 4 gusting 12 21.7
2020-Aug-09 12:05 047 5 gusting 12 21.7
2020-Aug-09 12:00 052 5 gusting 11 21.7
2020-Aug-09 11:55 059 4 gusting 10 21.1
2020-Aug-09 11:45 002 4 gusting 9 21.1
2020-Aug-09 11:40 033 4 gusting 9 21.1
2020-Aug-09 11:35 050 4 gusting 11 20.6
2020-Aug-09 11:30 031 4 gusting 11 20.6
2020-Aug-09 11:25 022 5 gusting 11 20.6
2020-Aug-09 11:20 040 5 gusting 11 20.6
2020-Aug-09 11:15 047 5 gusting 10 20.6
2020-Aug-09 11:10 050 5 gusting 10 20.0
2020-Aug-09 11:05 048 6 gusting 10 20.0
2020-Aug-09 11:00 051 6 gusting 12 19.4
2020-Aug-09 10:55 054 5 gusting 12 19.4
2020-Aug-09 10:50 062 6 gusting 11 19.4
2020-Aug-09 10:45 066 6 gusting 12 19.4
2020-Aug-09 10:40 067 5 gusting 12 19.4
2020-Aug-09 10:35 058 5 gusting 11 20.0
2020-Aug-09 10:25 052 4 gusting 9 20.0
2020-Aug-09 10:20 047 3 gusting 9 20.0
2020-Aug-09 10:15 028 4 gusting 7 20.0
2020-Aug-09 10:10 015 4 gusting 8 20.0
2020-Aug-09 10:05 018 4 gusting 8 20.0
2020-Aug-09 10:00 031 4 gusting 10 20.0